This demonstration page uses our WeatherBlox Daily Observations layout. Learn more.

Left ArrowRight Arrow

39.08367, -84.50855

Hourly Observations for May 5, 2016

Temp ( °F °C ) Dew Point ( °F °C ) Humidity (%) Winds ( mph kmh ) Pressure ( in mb ) Visibility ( mi km ) Precip ( " mm )
12:53 am 00:53 Cloudy 47 8.3 37 2.8 69 69 WNW 8 13 29.77 1008 10 16 0.00 0.00
1:53 am 01:53 Cloudy with Light Rain 46 7.8 38 3.3 73 73 WNW 6 9 29.75 1008 10 16 0.00 0.03
2:53 am 02:53 Cloudy with Light Rain 44 6.7 39 3.9 83 83 WNW 6 9 29.74 1007 10 16 0.00 0.03
3:17 am 03:17 Cloudy with Light Rain 44 6.7 39 3.9 83 83 NNW 7 11 29.77 1008 10 16 0.00 0.03
3:32 am 03:32 Cloudy 43 6 37 3 81 81 NW 8 13 29.77 1008 10 16 0.00 0.00
3:53 am 03:53 Cloudy 43 6.1 38 3.3 82 82 NW 7 11 29.74 1007 10 16 0.00 0.03
4:36 am 04:36 Cloudy with Light Rain 43 6.1 39 3.9 86 86 N 10 17 29.77 1008 10 16 0.00 0.03
4:53 am 04:53 Cloudy 42 5.6 40 4.4 92 92 N 8 13 29.74 1007 8 13 0.00 0.03
5:53 am 05:53 Cloudy 42 5.6 39 3.9 89 89 NNE 5 7 29.75 1007 10 16 0.00 0.03
6:53 am 06:53 Cloudy 43 6.1 40 4.4 89 89 N 6 9 29.78 1008 10 16 0.00 0.00
7:17 am 07:17 Cloudy 43 6.1 39 3.9 86 86 NE 8 13 29.83 1010 10 16 0.00 0.00
7:38 am 07:38 Cloudy 43 6.1 38 3.3 82 82 NE 8 13 29.83 1010 10 16 0.00 0.00
7:53 am 07:53 Cloudy 43 6.1 38 3.3 82 82 NNE 7 11 29.80 1009 10 16 0.00 0.00
8:29 am 08:29 Cloudy 46 7.8 39 3.9 77 77 NNE 7 11 29.83 1010 10 16 0.00 0.00
8:53 am 08:53 Cloudy 46 7.8 39 3.9 77 77 NNE 9 15 29.82 1010 10 16 0.00 0.00
9:53 am 09:53 Mostly Cloudy 46 7.8 38 3.3 73 73 NE 6 9 29.83 1010 10 16 0.00 0.00
10:53 am 10:53 Mostly Cloudy 50 10 39 3.9 66 66 VRB 7 11 29.85 1011 10 16 0.00 0.00
11:53 am 11:53 Cloudy 52 11.1 40 4.4 64 64 N 8 13 29.85 1011 10 16 0.00 0.00
12:53 pm 12:53 Cloudy 51 10.6 40 4.4 66 66 N 10 17 29.87 1012 10 16 0.00 0.00
1:23 pm 13:23 Cloudy 51 10.6 41 5 69 69 N 12 19 29.91 1013 10 16 0.00 0.00
1:53 pm 13:53 Cloudy 51 10.6 42 5.6 71 71 NNW 8 13 29.88 1012 10 16 0.00 0.00
2:53 pm 14:53 Cloudy 51 10.6 45 7.2 80 80 NNW 12 19 29.88 1012 10 16 0.00 0.00
3:53 pm 15:53 Cloudy 52 11.1 45 7.2 77 77 NW 6 9 29.88 1012 8 13 0.00 0.00
4:24 pm 16:24 Cloudy 54 12 46 8 77 77 NNW 6 9 29.91 1013 8 13 0.00 0.00
4:40 pm 16:40 Cloudy 54 12 46 8 77 77 VRB 7 11 29.91 1013 8 13 0.00 0.00
4:53 pm 16:53 Cloudy 53 11.7 46 7.8 77 77 W 6 9 29.87 1012 8 13 0.00 0.00
5:05 pm 17:05 Cloudy 54 12.2 47 8.3 77 77 W 7 11 29.91 1013 8 13 0.00 0.00
5:53 pm 17:53 Mostly Cloudy with Light Rain 55 12.8 48 8.9 77 77 WNW 6 9 29.86 1011 4 6 0.01 0.25
6:53 pm 18:53 Mostly Sunny 58 14.4 50 10 75 75 WNW 5 7 29.86 1011 10 16 0.00 0.03
7:53 pm 19:53 Partly Cloudy 58 14.4 49 9.4 72 72 WNW 5 7 29.86 1011 10 16 0.00 0.00
8:53 pm 20:53 Cloudy with Light Rain 57 13.9 50 10 78 78 WNW 8 13 29.87 1012 10 16 0.00 0.03
9:53 pm 21:53 Cloudy 54 12.2 49 9.4 83 83 Calm 29.88 1012 10 16 0.00 0.03
10:53 pm 22:53 Cloudy 52 11.1 49 9.4 89 89 Calm 29.90 1012 10 16 0.00 0.00
11:53 pm 23:53 Cloudy 51 10.6 49 9.4 92 92 Calm 29.90 1013 10 16 0.00 0.00

Powered by AerisWeather